Regional Weather Roundup
Issued by NWS Albany, NY

Home | Current Version | Previous Version | Graphics & Text | Print | Product List | Glossary Off
Versions: 1 2 3 4 5 6 7 8 9 10 11 12 13 14 15 16 17 18 19 20 21 22 23 24 25 26 27 28 29

000
ASUS41 KALY 250410
RWRALY

NEW YORK STATE HOURLY WEATHER ROUNDUP
NATIONAL WEATHER SERVICE ALBANY NY
1200 AM EDT SAT OCT 25 2014

NOTE: "FAIR" INDICATES FEW OR NO CLOUDS BELOW 12,000 FEET WITH NO
SIGNIFICANT WEATHER AND/OR NO OBSTRUCTIONS TO VISIBILITY.

NYZ032-033-038>043-046>054-057>066-NYZ062>081-250500-
EAST


CITY           SKY/WX    TMP DP  RH WIND       PRES   REMARKS
ALBANY         PTCLDY    44  42  93 CALM      29.86F
GLENS FALLS    FOG       42  41  96 S3        29.84F VSB 1
POUGHKEEPSIE   CLEAR     42  40  92 E3        29.85F
NEWBURGH       CLEAR     45  45 100 CALM      29.86R
MONTGOMERY     CLEAR     52  33  48 NW6       29.84F
WHITE PLAINS   CLEAR     45  42  89 CALM      29.83S
ISLIP          PTCLDY    50  46  86 NW5       29.81R
NEW YORK CITY  PTCLDY    58  41  53 NW10      29.83S
CENTRAL PARK   CLEAR     57  38  48 VRB7      29.87R
$$

NYZ005>009-017-018-044>046-055-056-250500-
CENTRAL


CITY           SKY/WX    TMP DP  RH WIND       PRES   REMARKS
FULTON         PTCLDY    45  37  73 SW5       29.90F
SYRACUSE       MOCLDY    46  38  73 W6        29.90F
ROME           PTCLDY    40  38  93 CALM      29.91F
ELMIRA         CLEAR     45  33  63 SW9       29.93F
BINGHAMTON     FAIR      44  30  57 NW3       29.90F
MONTICELLO     PTCLDY    46  36  66 NW7       29.89S
$$

NYZ026>034-041>043-250500-
NORTH


CITY           SKY/WX    TMP DP  RH WIND       PRES   REMARKS
WATERTOWN      PTCLDY    47  41  80 S3        29.86F
FORT DRUM      NOT AVBL
MASSENA        PTCLDY    46  43  89 SW8       29.83F
SARANAC LAKE   FOG       35  34  96 CALM      29.82F VSB 1/2
PLATTSBURGH    CLEAR     39  38  96 CALM      29.80F FOG
$$

NYZ001>004-010>016-019>021-250500-
WEST


CITY           SKY/WX    TMP DP  RH WIND       PRES   REMARKS
NIAGARA FALLS  CLOUDY    51  45  79 SW8       29.93F
BUFFALO        CLOUDY    54  46  74 W8        29.93F
DUNKIRK        CLOUDY    50  46  86 SW6       29.95F
JAMESTOWN      CLOUDY    46  39  76 S3        29.96F
WELLSVILLE     PTCLDY    43  34  70 W8        29.96F
ROCHESTER      PTCLDY    44  42  93 SW7       29.92F
PENN YAN       MOCLDY    49  40  71 SW8       29.92F
$$

             KEY
       WCI = WIND CHILL INDEX
       VSB = VISIBILITY
       HX  = HEAT INDEX
$$



USA.gov is the U.S. government's official web portal to all federal, state and local government web resources and services.